Regional Weather Roundup
Issued by NWS

Home | Current Version | Previous Version | Text Only | Print | Product List | Glossary On
Versions: 1 2 3 4 5 6 7 8 9 10 11 12 13 14 15 16 17 18 19 20 21 22 23 24 25 26 27 28 29 30 31 32 33 34 35 36 37 38 39 40 41 42 43 44 45 46 47 48 49 50
000
ASCA44 KEWX 280120
RWRMX

LATIN AMERICA AND CARIBBEAN REGIONAL WEATHER ROUNDUP
NATIONAL WEATHER SERVICE AUSTIN/SAN ANTONIO TX
800 PM CDT WED JUL 27 2016

NOTE: "FAIR" INDICATED FEW OR NO CLOUDS BELOW 12,000 FEET WITH NO
SIGNIFICANT WEATHER AND/OR OBSTRUCTIONS TO VISIBILITY.

BAJA CALIFORNIA

CITY           SKY/WX    TMP DP  RH WIND       PRES   REMARKS
LORETO         PTSUNNY   95  77  55 CALM      29.74S HX 109
LA PAZ         PTSUNNY   93  66  40 W7        29.80R HX  96
MEXICALI       MOSUNNY  111  55  16 SE7       29.66F HX 110
S.J. DEL CABO  MOSUNNY   90  66  45 SE9       29.82S HX  92
TIJUANA        MOSUNNY   79  57  47 W13       29.92S

NORTHWESTERN MEXICO

CITY           SKY/WX    TMP DP  RH WIND       PRES   REMARKS
CULIACAN       TSTM      81  75  83 SE12      29.83S
DURANGO        CLOUDY    64  59  82 S12       30.21R
GUAYMAS        PTSUNNY   97  75  49 SW12      29.67F HX 109
HERMOSILLO     MOSUNNY  106  70  31 NW10      29.74F HX 114
CD. JUAREZ     PTSUNNY   86  63  45 E14       29.96F
LOS MOCHIS     CLOUDY    86  72  62 SW9       29.78S HX  92
OBREGON        CLOUDY    95  68  41 SW9       29.72R HX  99

NORTHEASTERN MEXICO

CITY           SKY/WX    TMP DP  RH WIND       PRES   REMARKS
CHIHUAHUA      CLOUDY    82  57  42 CALM      30.03F
MATAMOROS      MOCLDY    88  75  66 SE14      29.89R HX  97
MONCLOVA       MOCLDY    82  68  61 E7        29.85
MONTERREY      LGT RAIN  77  66  69 NW5       29.92F
NUEVO LAREDO   MOCLDY    91  66  43 CALM      29.85F HX  94
PIEDRAS NEGRAS   N/A    N/A N/A N/A MISG        N/A
REYNOSA          N/A    N/A N/A N/A MISG        N/A
SALTILLO       CLOUDY    70  66  88 NE9       30.15S HAZE
TORREON        MOCLDY    84  63  48 NE12      29.98R
CD. VICTORIA   MOCLDY    90  61  37 SE3       29.86R

WESTERN MEXICO

CITY           SKY/WX    TMP DP  RH WIND       PRES   REMARKS
AGUASCALIENTES MOCLDY    75  54  46 CALM      30.14R
COLIMA         MOCLDY    79  68  69 CALM      29.98R
DEL BAJIO      CLOUDY    66  61  82 N7        30.18R
GUADALAJARA    LGT RAIN  66  59  77 NW16      30.12R
MANZANILLO     MOCLDY    86  79  79 NW7       29.79R HX  99
MAZATLAN       CLOUDY    84  79  84 NE6       29.86R HX  96
P. VALLARTA    CLOUDY    82  79  89 NE5       29.85  HX  93
URUAPAN          N/A    N/A N/A N/A MISG        N/A
ZACATECAS      MOCLDY    64  54  68 N29       30.23R

CENTRAL MEXICO

CITY           SKY/WX    TMP DP  RH WIND       PRES   REMARKS
CUERNAVACA       N/A    N/A N/A N/A MISG        N/A
MEXICO CITY    MOCLDY    63  54  72 NW10      30.26R
MORELIA        TSTM      59  57  94 SW5       30.21R
POZA RICA      PTCLDY    82  77  83 SE7       29.91R HX  91
PUEBLA         CLOUDY    61  54  77 SW14      30.29R
QUERETARO      MOCLDY    59  59 100 SW8       30.22R
S. LUIS POTOSI MOCLDY    70  54  56 E17       30.14R
TAMPICO        MOCLDY    82  75  78 SE9       29.89R
TOLUCA         TSTM      55  54  94 E7        30.36R

SOUTHERN MEXICO

CITY           SKY/WX    TMP DP  RH WIND       PRES   REMARKS
ACAPULCO       CLOUDY    86  75  70 SW5       29.85R HX  95
B. DE HUATULCO CLOUDY    84  68  58 W12       29.90R
OAXACA         CLOUDY    68  59  73 N3        30.17R
P. ESCONDIDO   CLOUDY    84  73  70 W10       29.94R HX  91
VERACRUZ       PTCLDY    84  77  79 E7        29.88R HX  94
ZIHUATANEJO    CLOUDY    88  75  66 NE2       29.85R HX  97

YUCATAN PENINSULA

CITY           SKY/WX    TMP DP  RH WIND       PRES   REMARKS
CAMPECHE       MOCLDY    81  75  83 N12       29.86R
CANCUN         PTCLDY    84  77  79 NE6       29.95R HX  94
CHETUMAL       PTCLDY    86  77  74 E12       29.92R HX  97
CD. DEL CARMEN PTCLDY    86  79  79 N18       29.84R HX  99
COZUMEL        PTCLDY    81  75  83 E6        29.94R
MERIDA         MOCLDY    81  73  78 E5        29.92R
MINATITLAN     MOCLDY    84  68  58 N12       29.81R
TAPACHULA      CLOUDY    79  75  89 CALM      29.82R
TUX. GUTIERREZ MOCLDY    81  68  65 W7        29.87R
VILLAHERMOSA   PTCLDY    88  75  66 NE9       29.85R HX  97

CENTRAL AMERICA

CITY           SKY/WX    TMP DP  RH WIND       PRES   REMARKS
MANAGUA        PTCLDY    81  70  69 E9        29.83R

CARIBBEAN

CITY           SKY/WX    TMP DP  RH WIND       PRES   REMARKS
ARUBA          PTCLDY    84  77  79 E22       29.86R HX  94
CURACAO        PTCLDY    82  75  78 E15       29.89S
KINGSTON       PTCLDY    86  73  66 SE17      29.92  HX  93
NASSAU         PTCLDY    86  75  70 E8        30.06S HX  95
SAN JUAN       PTCLDY    82  79  89 E8        30.03R HX  93
SANTO DOMINGO  PTCLDY    79  73  83 NE5       29.97S
ST. CROIX      PTCLDY    82  77  83 NE5       30.02  HX  91
ST. KITTS      PTCLDY    82  77  83 NE9       30.03R HX  91
ST. MAARTEN    PTCLDY    82  77  83 E8        30.00S HX  91

$$




USA.gov is the U.S. government's official web portal to all federal, state and local government web resources and services.